Location: Asheville, NC
(35.6000°N, 82.5500°W)
Time: 17:28:21

CUTE-I - Pass Details

Date: 10 March 2018
Orbit: 812 x 824 km, 98.7° (Epoch: 19 March)

Event Time Altitude Azimuth Distance (km) Brightness Sun altitude
Rises 19:32:23 0° 215° (SW) 3,327 ? -12.8°
Reaches altitude 10° 19:36:16 10° 245° (WSW) 2,404 ? -13.6°
Maximum altitude 19:38:25 12° 269° (W) 2,241 ? -14.0°
Drops below altitude 10° 19:40:35 10° 293° (WNW) 2,414 ? -14.4°
Sets 19:44:32 0° 322° (NW) 3,356 ? -15.2°
